Location: Ellingshausen
(50.5460°N, 10.4723°E)
Time: 13:10:52
(UTC+00:00)

Cosmos 676 Rocket - Pass Details

Date: 16 April 2026
Orbit: 750 x 779 km, 74.0° (Epoch: 19 May)

Event Time Altitude Azimuth Distance (km) Brightness Sun altitude
Rises 21:36:53 0° 341° (NNW) 3,271 8.6 -25.2°
Reaches altitude 10° 21:39:51 10° 357° (N) 2,336 7.4 -25.5°
Maximum altitude 21:43:53 21° 46° (NE) 1,669 5.9 -25.7°
Enters shadow 21:45:31 19° 71° (ENE) 1,790 5.8 -25.8°
